Regional Weather Roundup
Issued by NWS Newport/Morehead, NC

Current Version | Previous Version | Graphics & Text | Print | Product List | Glossary Off
Versions: 1 2 3 4 5 6 7 8 9 10 11 12 13 14 15 16 17 18 19 20 21 22 23 24 25 26 27 28 29 30 31 32 33 34 35 36 37 38 39 40 41 42 43 44 45 46 47 48 49 50

000
ASUS42 KMHX 300722
RWRMHX
WEATHER ROUNDUP FOR EASTERN NORTH CAROLINA
NATIONAL WEATHER SERVICE NEWPORT/MOREHEAD CITY NC
300 AM EDT THU OCT 30 2014

NOTE: "FAIR" INDICATES FEW OR NO CLOUDS BELOW 12,000 FEET
WITH NO SIGNIFICANT WEATHER AND/OR OBSTRUCTIONS TO VISIBILITY

NCZ015>017-031-032-045>047-102-103-300800-
NORTH COAST

CITY           SKY/WX    TMP DP  RH WIND       PRES   REMARKS
EDENTON        DRIZZLE   55  54  97 N9        30.00R
ELIZABETH CITY LGT RAIN  56  52  86 N14       29.98F
KITTY HAWK     LGT RAIN  59  55  87 N10G20    29.93S
MANTEO         CLOUDY    58  55  89 N14       29.94F

$$

NCZ045>047-081-094-103-104-300800-
CENTRAL COAST

CITY           SKY/WX    TMP DP  RH WIND       PRES   REMARKS
FRISCO         CLOUDY    63  61  93 N9G21     29.92S
SWANQUARTER      N/A     59 N/A N/A VRB10     29.91S

$$

NCZ095-097-098-100-101-300800-
SOUTHERN COAST

CITY           SKY/WX    TMP DP  RH WIND       PRES   REMARKS
BEAUFORT       CLOUDY    67  65  93 N6        29.92F
CEDAR ISLAND     N/A     64 N/A N/A N12       29.97S
JACKSONVILLE   LGT RAIN  61  59  93 N10       29.94S
PINEY ISLAND   LGT RAIN  66  61  84 N9        29.93S
WILMINGTON     LGT RAIN  64  63  96 N12       29.95R


$$

NCZ011>013-027>030-043-044-078>080-089-090>093-098-300800-
COASTAL PLAIN

CITY           SKY/WX    TMP DP  RH WIND       PRES   REMARKS
AHOSKIE        NOT AVBL
CLINTON        PTCLDY    58  54  86 N3        29.99S
ELIZABETHTOWN  CLOUDY    59  55  87 CALM      29.98S
GOLDSBORO      CLOUDY    59  59  98 N1        29.96F
GREENVILLE     CLOUDY    59  59 100 NE8       29.99F
HAVELOCK       LGT RAIN  64  61  90 N16       29.95S
KENANSVILLE    CLOUDY    58  56  92 CALM      29.98S
KINSTON        CLOUDY    60  57  91 N6        29.98S
NEW BERN       LGT RAIN  62  58  86 N8        29.96S
RICHLANDS      CLOUDY    59  55  88 CALM      29.97S
ROCKY MOUNT    CLOUDY    58  56  93 N9        30.00R
WASHINGTON     CLOUDY    58  56  93 NE7       29.97F
WHITEVILLE     LGT RAIN  59  55  86 CALM      29.96S

$$

AMZ130-135-150-152-154-156-158-170-250-252-270-ANZ085-086-088-633-658-670-300800-
MARINE OBSERVATIONS

STATION/POSITION TIME  TEMP    WIND        PRES    WAVE   SWELL
                       AIR SEA DIR/SP/G            HT/PER HT/PER
                 (UTC) (F)     (DEG/KT/KT) (MB)    (FT/S) (FT/S)
CHESAPEAKE LIGHT 0700   57      20/ 18/ 21 1015.4
64 E VA BEACH    0700   60 67   10/ 19/ 23 1013.4    6/ 6
DUCK             0700   60 67   20/ 20/ 23 1013.4
2 E DUCK         NOT AVBL
10 NE DUCK       0700      67                N/A     5/ 6
OREGON INLET     0700   60 68   10/ 15/ 21 1013.3
13E OREGON INLT  0600      70                N/A     4/ 4
HATTERAS CG      0700   64 72   10/ 19/ 23 1013.3
DIAMOND BUOY     0700   74     270/ 23/ 31 1011.7    4/ 5
17 S OCRACOKE    0600          VRB 17/ 23  1012.8
CAPE LOOKOUT     0700   68     310/  8/  9 1013.1
BEAUFORT LAB     0700   67 71  350/  6/  7 1012.5
30 SE NEW RIVER  0700   74 74  250/ 12/ 14 1012.6    3/ 5
5 SE WRIGHTSVLE  0700   65 71  350/ 14/ 17   N/A
225 S CAPE HAT   0636   75 76  240/  8/ 10 1015.3    2/ 8   2/ 8
41 SE CHARLESTON 0700   77 77  210/ 16/ 17 1013.2    2/ 4   2/ 7

$$



USA.gov is the U.S. government's official web portal to all federal, state and local government web resources and services.